FW8306 Weather Reports


time (UTC)temp
C
wind
direction
speed
KPH
gust
KPH
rain 1hr
cm
rain 24hr
cm
rain mn
cm
humidity
%
barometer
mb
20260507171602 13 0.0 0.0 0.00 0.00 0.00 50 1019.0
20260507170051 13 0.0 0.0 0.00 0.00 0.00 51 1019.0
20260507164555 13 0.0 0.0 0.00 0.00 0.00 52 1018.8
20260507163049 14 0.0 0.0 0.00 0.00 0.00 51 1018.7
20260507161552 14 0.0 0.0 0.00 0.00 0.00 52 1018.6
20260507160059 14 0.0 0.0 0.00 0.00 0.00 51 1018.7
20260507154549 14 0.0 0.0 0.00 0.00 0.00 51 1018.6
20260507153055 14 0.0 0.0 0.00 0.00 0.00 51 1018.7
20260507151550 15 0.0 0.0 0.00 0.00 0.00 49 1018.6
20260507150054 15 0.0 0.0 0.00 0.00 0.00 48 1018.5
20260507144552 15 0.0 0.0 0.00 0.00 0.00 46 1018.4
20260507143049 14 0.0 0.0 0.00 0.00 0.00 47 1018.4
20260507141601 13 0.0 0.0 0.00 0.00 0.00 51 1018.4
20260507140108 13 0.0 0.0 0.00 0.00 0.00 54 1018.4
20260507134552 13 0.0 0.0 0.00 0.00 0.00 54 1018.4
20260507133052 13 0.0 0.0 0.00 0.00 0.00 54 1018.5
20260507131604 13 0.0 0.0 0.00 0.00 0.00 55 1018.5
20260507130106 13 0.0 0.0 0.00 0.00 0.00 58 1018.5
20260507124605 13 0.0 0.0 0.00 0.00 0.00 54 1018.4
20260507123100 13 0.0 0.0 0.00 0.00 0.00 58 1018.3
20260507121554 13 0.0 0.0 0.00 0.00 0.00 60 1018.2
20260507120053 13 0.0 0.0 0.00 0.00 0.00 58 1018.2
20260507114552 15 0.0 0.0 0.00 0.00 0.00 57 1018.1
20260507113054 15 0.0 0.0 0.00 0.00 0.00 58 1017.9
20260507111555 13 0.0 0.0 0.00 0.00 0.00 65 1018.1
20260507110048 12 0.0 0.0 0.00 0.00 0.00 66 1018.2
20260507104551 12 0.0 0.0 0.00 0.00 0.00 68 1018.1
20260507103053 12 0.0 0.0 0.00 0.00 0.00 69 1018.2
20260507101552 12 0.0 0.0 0.00 0.00 0.00 66 1018.1
20260507100057 13 0.0 0.0 0.00 0.00 0.00 57 1018.0
20260507094554 15 0.0 0.0 0.00 0.00 0.00 55 1017.7
20260507093055 14 0.0 0.0 0.00 0.00 0.00 55 1017.7
20260507091554 14 0.0 0.0 0.00 0.00 0.00 54 1017.8
20260507090054 13 0.0 0.0 0.00 0.00 0.00 58 1017.7
20260507084555 13 0.0 0.0 0.00 0.00 0.00 59 1017.8
20260507083057 12 0.0 0.0 0.00 0.00 0.00 60 1017.6
20260507081555 12 0.0 0.0 0.00 0.00 0.00 60 1017.6
20260507080134 12 0.0 0.0 0.00 0.00 0.00 60 1017.4
20260507074601 13 0.0 0.0 0.00 0.00 0.00 56 1017.4
20260507073101 12 0.0 0.0 0.00 0.00 0.00 58 1017.2
20260507071603 11 0.0 0.0 0.00 0.00 0.00 60 1017.3
20260507070054 10 0.0 0.0 0.00 0.00 0.00 68 1017.2
20260507064555 9 0.0 0.0 0.00 0.00 0.00 80 1017.1
20260507063055 8 0.0 0.0 0.00 0.00 0.00 84 1017.1
20260507061554 8 0.0 0.0 0.00 0.00 0.00 86 1017.0
20260507060053 7 0.0 0.0 0.00 0.00 0.00 87 1017.0
20260507054603 7 0.0 0.0 0.00 0.00 0.00 88 1016.9
20260507053056 6 0.0 0.0 0.00 0.00 0.00 89 1016.7
20260507051558 6 0.0 0.0 0.00 0.00 0.00 90 1016.7
20260507050057 5 0.0 0.0 0.00 0.00 0.00 91 1016.6
20260507044600 5 0.0 0.0 0.00 0.00 0.00 91 1016.4
20260507043052 5 0.0 0.0 0.00 0.00 0.00 90 1016.4
20260507041601 5 0.0 0.0 0.00 0.00 0.00 90 1016.4
20260507040105 4 0.0 0.0 0.00 0.00 0.00 90 1016.2
20260507034559 4 0.0 0.0 0.00 0.00 0.00 90 1016.1
20260507033051 4 0.0 0.0 0.00 0.00 0.00 90 1016.0
20260507031557 3 0.0 0.0 0.00 0.00 0.00 90 1015.9
20260507030056 3 0.0 0.0 0.00 0.00 0.00 89 1015.8
20260507024550 3 0.0 0.0 0.00 0.00 0.00 89 1015.6
20260507023048 4 0.0 0.0 0.00 0.00 0.00 89 1015.6
20260507021549 4 0.0 0.0 0.00 0.00 0.00 89 1015.5
20260507014600 4 0.0 0.0 0.00 0.00 0.00 89 1015.4
20260507013050 4 0.0 0.0 0.00 0.00 0.00 89 1015.3
20260507011602 5 0.0 0.0 0.00 0.00 0.00 88 1015.3
20260507010055 5 0.0 0.0 0.00 0.00 0.00 88 1015.1
20260507004556 5 0.0 0.0 0.00 0.00 0.00 87 1015.2
20260507003056 5 0.0 0.0 0.00 0.00 0.00 87 1015.2
20260507001613 5 0.0 0.0 0.00 0.00 0.00 86 1015.1
20260507000059 5 0.0 0.0 0.00 0.00 0.00 86 1015.1
20260506234602 5 0.0 0.0 0.00 0.00 0.00 86 1015.1
20260506233053 6 0.0 0.0 0.00 0.00 0.00 86 1015.1
20260506231550 6 0.0 0.0 0.00 0.00 0.00 86 1015.1
20260506230053 6 0.0 0.0 0.00 0.00 0.00 85 1015.1
20260506224552 6 0.0 0.0 0.00 0.00 0.00 85 1015.2
20260506223049 6 0.0 0.0 0.00 0.00 0.00 84 1015.0
20260506221555 6 0.0 0.0 0.00 0.00 0.00 84 1015.0
20260506214552 7 0.0 0.0 0.00 0.00 0.00 82 1014.7
20260506213100 7 0.0 0.0 0.00 0.00 0.00 82 1014.8
20260506211552 7 0.0 0.0 0.00 0.00 0.00 81 1014.8
20260506210100 7 0.0 0.0 0.00 0.00 0.00 80 1014.7
20260506204553 7 0.0 0.0 0.00 0.00 0.00 80 1014.6
20260506203139 7 0.0 0.0 0.00 0.00 0.00 79 1014.6
20260506201552 7 0.0 0.0 0.00 0.00 0.00 78 1014.6
20260506200053 7 0.0 0.0 0.00 0.00 0.00 77 1014.6
20260506194555 8 0.0 0.0 0.00 0.00 0.00 76 1014.4
20260506193052 8 0.0 0.0 0.00 0.00 0.00 75 1014.3
20260506191559 8 0.0 0.0 0.00 0.00 0.00 73 1014.1
20260506190056 8 0.0 0.0 0.00 0.00 0.00 71 1014.1
20260506184559 9 0.0 0.0 0.00 0.00 0.00 71 1013.8
20260506183058 10 0.0 0.0 0.00 0.00 0.00 71 1013.6
20260506181556 10 0.0 0.0 0.00 0.00 0.00 69 1013.4
20260506180055 10 0.0 0.0 0.00 0.00 0.00 68 1013.3
20260506174605 11 0.0 0.0 0.00 0.00 0.00 65 1013.1
20260506173058 11 0.0 0.0 0.00 0.00 0.00 62 1013.0